TimeCDT,TemperatureF,Dew PointF,Humidity,Sea Level PressureIn,VisibilityMPH,Wind Direction,Wind SpeedMPH,Gust SpeedMPH,PrecipitationIn,Events,Conditions,WindDirDegrees,DateUTC
12:22 AM,62.6,55.4,77,30.24,10.0,Calm,Calm,-,N/A,,Overcast,0,2012-10-12 05:22:00
12:53 AM,62.1,55.9,80,30.22,10.0,Calm,Calm,-,N/A,,Overcast,0,2012-10-12 05:53:00
1:05 AM,62.6,55.4,77,30.23,10.0,Calm,Calm,-,N/A,,Overcast,0,2012-10-12 06:05:00
1:53 AM,62.1,55.9,80,30.21,10.0,Calm,Calm,-,N/A,,Overcast,0,2012-10-12 06:53:00
2:53 AM,62.1,57.0,84,30.20,10.0,ENE,3.5,-,N/A,,Overcast,70,2012-10-12 07:53:00
3:53 AM,61.0,55.9,83,30.19,10.0,ESE,3.5,-,N/A,,Mostly Cloudy,110,2012-10-12 08:53:00
4:53 AM,59.0,55.0,87,30.19,10.0,ENE,4.6,-,N/A,,Partly Cloudy,60,2012-10-12 09:53:00
5:53 AM,62.1,55.9,80,30.22,10.0,NE,3.5,-,N/A,,Overcast,50,2012-10-12 10:53:00
6:53 AM,64.0,55.9,75,30.26,10.0,NE,6.9,-,N/A,,Mostly Cloudy,40,2012-10-12 11:53:00
7:15 AM,64.4,57.2,77,30.27,9.0,ENE,4.6,-,0.00,Rain-Thunderstorm,Light Thunderstorms and Rain,70,2012-10-12 12:15:00
7:45 AM,62.6,57.2,82,30.31,1.0,NE,9.2,-,0.02,Rain-Thunderstorm,Thunderstorms and Rain,40,2012-10-12 12:45:00
7:53 AM,62.1,59.0,90,30.29,1.0,East,4.6,-,0.10,Rain-Thunderstorm,Heavy Thunderstorms and Rain,90,2012-10-12 12:53:00
8:13 AM,62.6,59.0,88,30.30,3.0,SSE,5.8,-,0.11,Rain-Thunderstorm,Heavy Thunderstorms and Rain,160,2012-10-12 13:13:00
8:35 AM,60.8,59.0,94,30.30,3.0,SSE,5.8,-,0.18,Rain,Light Rain,150,2012-10-12 13:35:00
8:53 AM,62.6,60.8,94,30.30,3.0,Calm,Calm,-,N/A,Rain,Light Rain,0,2012-10-12 13:53:00
9:24 AM,62.6,60.8,94,30.31,3.0,Calm,Calm,-,0.00,Rain,Light Rain,0,2012-10-12 14:24:00
9:35 AM,62.6,60.8,94,30.30,1.0,Calm,Calm,-,N/A,Rain,Light Rain,0,2012-10-12 14:35:00
9:41 AM,62.6,60.8,94,30.31,2.0,Calm,Calm,-,0.00,Rain,Light Rain,0,2012-10-12 14:41:00
9:53 AM,63.0,61.0,93,30.30,4.0,Calm,Calm,-,0.00,,Overcast,0,2012-10-12 14:53:00
10:37 AM,64.4,60.8,88,30.31,2.0,Calm,Calm,-,0.02,Rain,Light Rain,0,2012-10-12 15:37:00
10:40 AM,64.4,60.8,88,30.31,3.0,Calm,Calm,-,0.02,Rain,Light Rain,0,2012-10-12 15:40:00
10:53 AM,64.0,61.0,90,30.31,2.0,Calm,Calm,-,0.03,Rain,Heavy Rain,0,2012-10-12 15:53:00
10:59 AM,64.4,60.8,88,30.33,1.5,Calm,Calm,-,0.03,Rain,Heavy Rain,0,2012-10-12 15:59:00
11:53 AM,64.9,62.1,90,30.30,1.5,Calm,Calm,-,0.20,Rain-Thunderstorm,Light Thunderstorms and Rain,0,2012-10-12 16:53:00
12:40 PM,64.4,62.6,94,30.30,2.0,Calm,Calm,-,0.21,Rain-Thunderstorm,Thunderstorms and Rain,0,2012-10-12 17:40:00
12:53 PM,64.9,62.1,90,30.29,2.5,WSW,4.6,-,0.24,Rain,Light Rain,240,2012-10-12 17:53:00
1:07 PM,64.4,62.6,94,30.29,3.0,WSW,6.9,-,0.01,Rain,Light Rain,250,2012-10-12 18:07:00
1:53 PM,66.0,64.0,93,30.23,6.0,SW,3.5,-,0.07,Rain,Light Rain,220,2012-10-12 18:53:00
2:53 PM,69.1,64.9,87,30.24,10.0,WNW,3.5,-,0.00,Rain,Light Rain,300,2012-10-12 19:53:00
3:05 PM,69.8,64.4,83,30.24,10.0,Calm,Calm,-,N/A,,Mostly Cloudy,0,2012-10-12 20:05:00
3:53 PM,72.0,64.9,78,30.22,10.0,Calm,Calm,-,N/A,,Overcast,0,2012-10-12 20:53:00
4:53 PM,73.4,66.2,78,30.24,10.0,Calm,Calm,-,N/A,,Overcast,0,2012-10-12 21:53:00
5:53 PM,71.1,64.9,81,30.23,10.0,NE,4.6,-,N/A,,Overcast,40,2012-10-12 22:53:00
6:53 PM,70.0,64.9,84,30.23,10.0,NE,4.6,-,N/A,,Overcast,50,2012-10-12 23:53:00
7:46 PM,68.0,64.4,88,30.25,10.0,ENE,6.9,-,N/A,,Overcast,70,2012-10-13 00:46:00
7:53 PM,68.0,64.0,87,30.25,10.0,ENE,6.9,-,N/A,,Overcast,70,2012-10-13 00:53:00
8:23 PM,66.2,62.6,88,30.26,10.0,ENE,8.1,-,N/A,,Overcast,60,2012-10-13 01:23:00
8:31 PM,66.2,62.6,88,30.26,10.0,ENE,8.1,-,N/A,,Overcast,60,2012-10-13 01:31:00
8:53 PM,66.9,63.0,87,30.25,10.0,ENE,5.8,-,N/A,,Overcast,60,2012-10-13 01:53:00
9:53 PM,64.9,62.1,90,30.26,10.0,NE,3.5,-,N/A,,Overcast,40,2012-10-13 02:53:00
10:53 PM,64.9,62.1,90,30.26,10.0,East,3.5,-,N/A,,Overcast,100,2012-10-13 03:53:00
11:53 PM,66.0,63.0,90,30.25,10.0,NE,3.5,-,N/A,,Overcast,40,2012-10-13 04:53:00